Regional Weather Roundup
Issued by NWS

Home | Current Version | Previous Version | Text Only | Print | Product List | Glossary Off
Versions: 1 2 3 4 5 6 7 8 9 10 11 12 13 14 15 16 17 18 19 20 21 22 23 24 25 26 27

000
ASUS45 KCYS 242010
RWRWY

WYOMING REGIONAL WEATHER ROUNDUP
NATIONAL WEATHER SERVICE CHEYENNE WY
100 PM MST SAT FEB 24 2018

NOTE:  "FAIR" INDICATES FEW OR NO CLOUDS BELOW 12,000 FEET
WITH NO SIGNIFICANT WEATHER AND/OR OBSTRUCTIONS TO VISIBILITY.

WYZ001-242100-
YELLOWSTONE NATIONAL PARK

CITY           SKY/WX    TMP DP  RH WIND       PRES   REMARKS
LK YELLOWSTONE   N/A     11   2  67 W8        29.75F WCI  -1
W YELLOWSTONE  NOT AVBL

$$
WYZ002>013-054>058-071-098>099-242100-
NORTHERN WYOMING

CITY           SKY/WX    TMP DP  RH WIND       PRES   REMARKS
JACKSON        LGT SNOW  17   9  70 S14       29.83F WCI   3
CODY           NOT AVBL
GREYBULL       FAIR      17   8  67 CALM      29.79F
WORLAND        FAIR      24   9  52 CALM      29.77F
SHERIDAN       CLOUDY    26   8  46 S3        29.71F
BUFFALO        PTSUNNY   25   7  46 S10       29.68F WCI  15
GILLETTE       PTSUNNY   23   9  55 SW12      29.70F WCI  12
HULETT         CLOUDY    27  12  54 MISG      29.70F
NEWCASTLE      FAIR      27  10  50 NW13G21   29.73R WCI  16

$$
WYZ014>020-022>026-101>103-242100-
CENTRAL WYOMING

CITY           SKY/WX    TMP DP  RH WIND       PRES   REMARKS
BIG PINEY      FAIR      18   2  49 NE5       29.83F WCI  11
PINEDALE       CLOUDY    14   5  67 N3        29.84F HAZE
DUBOIS           N/A    N/A N/A N/A MISG        N/A
LANDER         FAIR      25   7  46 SE8       29.73F WCI  16
RIVERTON       FAIR      28   4  35 NW23G35   29.72F WCI  14
CASPER         FAIR      20  10  65 SW24      29.76F WCI   3
DOUGLAS        FAIR      24  10  55 W22       29.74S WCI   9

$$
WYZ021-027>030-104>119-242100-
SOUTHERN WYOMING

CITY           SKY/WX    TMP DP  RH WIND       PRES   REMARKS
EVANSTON       CLOUDY    16   7  67 SW21      29.87F WCI  -1
ROCK SPRINGS   FAIR      18   7  62 W24G33    29.87F WCI   0
DIXON          CLOUDY    20   7  56 SW15G25   29.94F WCI   6
RAWLINS        CLOUDY    15   8  73 W30G41    29.82S HAZE    WCI  -5
SARATOGA       FAIR      18   9  68 W30G46    29.82F HAZE    WCI  -2
LARAMIE        PTSUNNY   15   4  61 W25G35    29.72F WCI  -4
CHEYENNE       FAIR      25   3  38 NW23G44   29.72R WCI  10
TORRINGTON     FAIR      30  10  43 W21G36    29.75R WCI  17
PINE BLUFFS    FAIR      28  12  50 MISG      29.74S

$$




USA.gov is the U.S. government's official web portal to all federal, state and local government web resources and services.